Weather History for Laredo, TX

Change the Weather History Date:

Friday, February 15, 2013

  Actual Average Record
Temperature  
Mean Temperature 62 °F 61 °F  
Max Temperature 76 °F 72 °F 94 °F (1990)
Min Temperature 48 °F 50 °F 16 °F (1909)
Degree Days  
Heating Degree Days 3 6  
Month to date heating degree days 15 103  
Since 1 July heating degree days 446 782  
Cooling Degree Days 0 2  
Month to date cooling degree days 50 26  
Year to date cooling degree days 128 54  
Growing Degree Days 10 (Base 50)    
Moisture  
Dew Point 44 °F    
Average Humidity 52    
Maximum Humidity 79    
Minimum Humidity 35    
Precipitation  
Precipitation T in 0.04 in 0.75 in (1983)
Month to date precipitation 0.29 0.50  
Year to date precipitation 0.73 1.40  
Sea Level Pressure  
Sea Level Pressure 30.14 in    
Wind  
Wind Speed 10 mph (ENE)    
Max Wind Speed 28 mph    
Max Gust Speed 33 mph    
Visibility 10 miles    
Events Rain    
T = Trace of Precipitation, MM = Missing Value Source: NWS Daily Summary

Daily Weather History Graph

Daily Weather History Graph

Search for Another Location

Airport:

Trip Planner

Search our weather history database for the weather conditions in past years. The results will help you decide how hot, cold, wet, or windy it might be!

Date:

Astronomy

Feb. 15, 2013 Rise Set
Actual Time 7:14 AM CST 6:29 PM CST
Civil Twilight 6:50 AM CST 6:53 PM CST
Nautical Twilight 6:23 AM CST 7:20 PM CST
Astronomical Twilight 5:56 AM CST 7:48 PM CST
Moon 10:26 AM CST (2/15) 11:54 PM CST (2/15)
Length of Visible Light 12h 02m
Length of Day
11h 14m
Waxing Crescent, 30% of the Moon is Illuminated
Feb 15
Waxing Crescent
Feb 17
First Quarter
Feb 25
Full
Mar 4
Last Quarter
Mar 11
New

Hourly Weather History & Observations

Time (CST) Temp. Dew Point Humidity Pressure Visibility Wind Dir Wind Speed Gust Speed Precip Events Conditions
12:56 AM 54.9 °F 41.0 °F 60% 30.04 in 10.0 mi SSE 8.1 mph - N/A   Clear
1:56 AM 54.0 °F 41.9 °F 64% 30.05 in 10.0 mi SE 8.1 mph - N/A   Clear
2:56 AM 52.0 °F 41.9 °F 69% 30.05 in 10.0 mi SE 5.8 mph - N/A   Clear
3:56 AM 50.9 °F 43.0 °F 74% 30.05 in 10.0 mi ESE 9.2 mph - N/A   Clear
4:56 AM 48.9 °F 41.9 °F 77% 30.05 in 10.0 mi East 6.9 mph - N/A   Clear
5:56 AM 48.9 °F 41.9 °F 77% 30.07 in 10.0 mi East 8.1 mph - N/A   Clear
6:56 AM 47.8 °F 41.9 °F 80% 30.10 in 10.0 mi East 8.1 mph - N/A   Clear
7:56 AM 50.9 °F 43.9 °F 77% 30.12 in 10.0 mi East 10.4 mph - N/A   Clear
8:56 AM 59.0 °F 47.8 °F 66% 30.15 in 10.0 mi SE 6.9 mph - N/A   Clear
9:56 AM 64.9 °F 50.0 °F 58% 30.16 in 10.0 mi SE 8.1 mph - N/A   Clear
10:56 AM 70.0 °F 48.9 °F 47% 30.17 in 6.0 mi South 8.1 mph - N/A   Haze
11:56 AM 72.0 °F 46.9 °F 41% 30.16 in 10.0 mi Calm Calm - N/A   Clear
12:56 PM 72.9 °F 47.8 °F 41% 30.14 in 10.0 mi West 5.8 mph - N/A   Scattered Clouds
1:56 PM 73.9 °F 46.9 °F 38% 30.11 in 10.0 mi WNW 4.6 mph - N/A   Partly Cloudy
2:56 PM 73.9 °F 43.9 °F 34% 30.09 in 10.0 mi Variable 3.5 mph - N/A   Partly Cloudy
3:56 PM 74.8 °F 46.9 °F 37% 30.09 in 10.0 mi NW 8.1 mph - N/A   Partly Cloudy
4:56 PM 73.9 °F 45.9 °F 37% 30.09 in 10.0 mi NNW 13.8 mph - N/A   Partly Cloudy
5:35 PM 71.6 °F 44.6 °F 38% 30.14 in 10.0 mi NNE 13.8 mph - N/A   Mostly Cloudy
5:56 PM 70.9 °F 43.0 °F 37% 30.12 in 10.0 mi North 13.8 mph - N/A   Partly Cloudy
6:56 PM 68.9 °F 43.0 °F 39% 30.15 in 10.0 mi North 10.4 mph - N/A   Scattered Clouds
7:56 PM 66.9 °F 43.9 °F 43% 30.19 in 10.0 mi North 13.8 mph - N/A   Mostly Cloudy
8:56 PM 65.8 °F 38.8 °F 37% 30.24 in 10.0 mi North 13.8 mph - N/A   Mostly Cloudy
9:56 PM 64.9 °F 37.9 °F 37% 30.25 in 10.0 mi North 11.5 mph - N/A   Overcast
10:56 PM 61.9 °F 36.9 °F 39% 30.30 in 10.0 mi NE 20.7 mph 27.6 mph N/A   Overcast
11:56 PM 56.8 °F 37.9 °F 49% 30.34 in 10.0 mi NE 20.7 mph - 0.00 in Rain Light Rain